#timestamp,LO_Frequency,Hit,StdDev 
1511913615.7,286047000.8,N
1511913635.6,286046995.5,N
1511913655.4,286046997.7,N
1511913675.2,286046997.8,N
1511913695.1,286046996.0,N
1511913696.0,286046996.0,N
1511913715.8,286046994.8,N
1511913735.6,286046992.6,N
1511913755.5,286046989.1,N
1511913775.3,286046986.6,N
1511913795.1,286046982.7,Y
1511913815.9,286046985.6,P
1511913835.7,286046985.9,N
1511913855.5,286046980.6,P
1511913875.4,286046981.1,N
1511913895.2,286046979.9,Y
1511913915.0,286046994.4,P
1511913915.9,286046994.4,N
1511913935.8,286046996.2,N
1511913955.6,286046991.5,N
1511913975.4,286046987.7,Y
1511913995.3,286046990.1,P
1511914015.1,286046990.2,P
1511914035.8,286046990.0,P
1511914055.7,286046988.4,Y
1511914075.5,286046999.2,P
1511914095.3,286046996.8,N
1511914115.2,286046995.3,N
1511914135.9,286046995.9,N
1511914155.7,286046996.0,N
1511914175.6,286046993.5,N
1511914195.4,286046990.6,Y
1511914215.2,286046994.0,P
1511914235.1,286046997.3,P
1511914236.0,286046997.3,N
1511914255.8,286047000.5,N
1511914275.6,286046999.9,N
1511914295.5,286047001.7,N
1511914315.3,286047000.2,N
1511914335.1,286046998.1,N
1511914355.8,286046997.7,N
1511914375.7,286046995.1,N
1511914395.5,286046999.3,N
1511914415.3,286046998.7,N
1511914435.2,286047000.6,N
1511914455.9,286047004.3,N
1511914475.7,286047006.0,N
1511914495.6,286047005.0,N
1511914515.4,286047003.5,N
1511914535.2,286047002.2,N
1511914555.1,286047002.3,N
1511914556.0,286047002.3,N
1511914575.8,286047003.7,N
1511914595.6,286047005.2,N
1511914615.5,286047012.2,Y
1511914635.3,286047009.0,P
1511914655.1,286047007.7,N
1511914675.9,286047013.0,P
1511914695.7,286047012.8,N
1511914715.5,286047012.7,N
1511914735.4,286047015.9,Y
1511914755.2,286047008.6,P
1511914775.0,286047014.0,P
1511914775.9,286047014.0,P
1511914795.8,286047015.1,Y
1511914815.6,286047003.5,P
1511914835.4,286047007.4,N
1511914855.3,286047008.1,N
1511914875.1,286047006.1,N
1511914876.0,286047006.1,N
1511914895.8,286047005.4,N
1511914915.7,286047007.6,Y
1511914935.5,286046998.7,P
1511914955.3,286046993.7,N
1511914975.1,286046993.7,N
1511914995.9,286046992.3,N
1511915015.7,286046990.8,N
1511915035.5,286046989.2,N
1511915055.4,286046987.4,N
1511915075.2,286046987.1,N
1511915095.0,286046990.7,N
1511915095.9,286046990.7,N
1511915115.8,286046990.5,N
1511915135.6,286046996.1,N
1511915155.4,286046997.6,N
1511915175.3,286047002.3,N
1511915195.1,286047003.8,N
1511915196.0,286047003.8,N
1511915215.8,286047006.4,N
1511915235.7,286047003.4,N
1511915255.5,286047000.2,N
1511915275.3,286047002.6,N
1511915295.1,286047000.9,N
1511915315.9,286047002.0,N
1511915335.7,286047004.5,N
1511915355.5,286047006.4,N
1511915375.4,286047012.4,N
1511915395.2,286047007.8,N
1511915415.0,286047005.7,N
1511915415.9,286047005.7,N
1511915435.8,286047008.5,N
1511915455.6,286047008.3,N
1511915475.4,286047005.6,N
1511915495.3,286047001.9,N
1511915515.1,286047001.4,N
1511915516.0,286047001.4,N
1511915535.8,286047004.1,N
1511915555.7,286047002.4,N
1511915575.5,286046999.4,N
1511915595.3,286046998.3,N
1511915615.1,286046999.5,N
1511915635.9,286046995.0,N
1511915655.7,286046995.0,N
1511915675.5,286046999.5,N
1511915695.4,286047000.5,N
1511915715.2,286047004.0,N
1511915735.0,286047007.4,N
1511915735.9,286047007.4,N
1511915755.8,286047005.1,N
1511915775.6,286047004.0,N
1511915795.4,286047002.4,N
1511915815.3,286046995.0,N
1511915835.1,286046993.8,N
1511915836.0,286046993.8,N
1511915855.8,286046996.2,N
1511915875.7,286046995.7,N
1511915895.5,286046994.1,N
1511915915.3,286046998.3,N
1511915935.1,286047000.9,N
1511915955.9,286046996.9,N
1511915975.7,286046995.9,N
1511915995.5,286046993.7,N
1511916015.4,286046994.7,N
1511916035.2,286046996.1,N
1511916055.0,286046994.6,N
1511916055.9,286046994.6,N
1511916075.8,286046989.1,N
1511916095.6,286046985.8,Y
1511916115.4,286046991.4,P
1511916135.3,286046992.3,N
1511916155.1,286046992.7,N
1511916175.8,286046992.8,N
1511916195.7,286046997.6,N
1511916215.5,286046996.0,N
1511916235.3,286046994.6,N
1511916255.2,286046993.2,N
1511916275.9,286046992.3,Y
1511916295.7,286046995.8,P
1511916315.6,286046996.9,P
1511916335.4,286046996.8,P
1511916355.2,286046996.2,Y
1511916375.1,286047000.8,P
1511916376.0,286047000.8,N
1511916395.8,286047002.3,N
1511916415.6,286047000.2,N
1511916435.5,286047000.1,N
1511916455.3,286047000.1,N
1511916475.1,286047002.4,N
1511916495.8,286046999.0,N
1511916515.7,286047000.6,N
1511916535.5,286046999.7,N
1511916555.3,286047002.8,N
1511916575.2,286046999.9,N
1511916595.9,286046998.2,N
1511916615.7,286046999.2,N
1511916635.6,286047000.3,N
1511916655.4,286047000.5,N
1511916675.2,286047000.4,N
1511916695.1,286047005.9,Y
1511916696.0,286047005.9,P
1511916715.8,286047008.7,P
1511916735.6,286047006.5,N
1511916755.5,286047005.8,N
1511916775.3,286047002.7,N
1511916795.1,286047003.2,N
1511916815.9,286047004.0,N
1511916835.7,286046999.8,N
1511916855.5,286047001.7,N
1511916875.3,286047000.2,N
1511916895.2,286047000.3,N
1511916915.0,286047002.3,N
1511916915.9,286047002.3,N
1511916935.7,286046999.8,N
1511916955.6,286047002.1,N
1511916975.4,286047000.5,N
1511916995.2,286046996.7,N
1511917015.1,286046996.8,N
1511917016.0,286046996.8,N
1511917035.8,286046995.9,N
1511917055.6,286046994.5,N
1511917075.5,286046992.3,N
1511917095.3,286046992.7,N
1511917115.1,286046988.2,N
1511917135.9,286046987.8,N
1511917155.7,286046985.8,N
1511917175.5,286046986.9,N
1511917195.4,286046987.9,N
